Погода в Вязовке

Россия / Ульяновская область     52°51′18″N   48°22′21″E
темп.,
°C
ветер,
м/с
пор.,
м/с
влажн.,
%
обл.,
%
осадки,
мм/ч
давл.,
гПа
погр.,
м
28 января, чт
чт2801:00−5ююв61196100 0.0 1022409
04:00−7ююв51096100 0.1 1021290
07:00−10юв4896100 0.0 1020251
10:00−9юв51197100 0.0 1018301
13:00−7юв51094100 0.0 1017396
16:00−7юв51093100 0.1 1016396
19:00−9юв4996100 0.0 1016212
22:00−8юв3897100 0.1 1014249
29 января, пт
пт2901:00−7вюв3798100 0.1 1014252
04:00−6вюв4798100 0.1 1013268
07:00−5юв4797100 0.1 1012263
10:00−5юв4697100 0.2 1012249
13:00−4юв3597100 0.1 1011298
16:00−3юв3497100 0.2 1010248
19:00−4вюв1298100 0.3 100929
22:00−4юз2497100 1.0 100993
30 января, сб
сб3001:00−5зюз3494100 0.6 100975
04:00−8юз239766 0.6 100922
07:00−8ю339664 0.0 100930
10:00−7ююв499760 0.0 1008211
13:00−1ю81492100 0.0 1006727
16:000ююз81595100 0.4 1006990
19:000юз51190100 0.3 1009514
22:00−4юз3492100 0.3 101175
31 января, вс
вс3101:00−5ююз2392100 0.0 101222
04:000ю5998100 0.1 1012372
07:00−1ю5996100 0.1 1012308
10:00−5ююв41093100 0.1 1012231
13:00−3ююв61489100 0.0 1012433
16:00−3ююв71685100 0.0 1009501
19:00−4ююв91887100 0.0 1006617
22:00−1ю101897100 2.0 1003788
1 февраля, пн
пн101:00+1юз91598100 1.5 1002910
04:00−4юз7168788 1.6 1005579
07:00−5зюз7148684 0.0 1008609
10:00−6зюз7148879 0.0 1013546
13:00−5з6128651 0.0 1016569
16:00−6зюз598826 0.0 1018298
19:00−9зюз479232 0.0 1021114
22:00−11юз129457 0.0 102221